FW9014 Weather Reports


Display with metric or nautical units.
time (UTC)temp
F
wind
direction
speed
MPH
gust
MPH
rain 1hr
in
rain 24hr
in
rain mn
in
humidity
%
barometer
mb
20260510203048 86 29 3.0 9.0 0.00 0.01 0.00 65 1014.6
20260510201549 88 326 0.0 3.0 0.00 0.01 0.00 62 1014.5
20260510200046 89 0 2.0 5.0 0.00 0.01 0.00 62 1014.3
20260510194547 88 186 4.0 6.0 0.00 0.01 0.00 61 1014.3
20260510193053 88 198 3.0 6.0 0.00 0.01 0.00 64 1014.2
20260510191550 89 190 3.0 6.0 0.00 0.01 0.00 61 1014.2
20260510190050 87 206 1.0 4.0 0.00 0.01 0.00 67 1014.1
20260510184548 86 192 4.0 7.0 0.00 0.01 0.00 69 1014.0
20260510183046 85 207 4.0 8.0 0.00 0.01 0.00 69 1014.0
20260510181606 86 198 5.0 8.0 0.00 0.01 0.00 67 1014.0
20260510174547 81 0 0.0 3.0 0.00 0.01 0.00 78 1014.3
20260510173049 80 300 1.0 2.0 0.00 0.01 0.00 80 1014.6
20260510171551 78 0 0.0 3.0 0.00 0.01 0.00 83 1014.7
20260510170049 78 325 2.0 3.0 0.00 0.01 0.00 85 1014.9
20260510164554 77 325 1.0 3.0 0.00 0.01 0.00 86 1015.2
20260510163048 77 305 2.0 4.0 0.00 0.01 0.00 87 1015.4
20260510161547 77 316 2.0 5.0 0.00 0.01 0.00 86 1015.4
20260510160051 77 268 2.0 4.0 0.00 0.01 0.00 86 1015.4
20260510154554 78 219 0.0 6.0 0.00 0.01 0.00 84 1015.4
20260510153052 79 217 3.0 5.0 0.00 0.01 0.00 83 1015.5
20260510151550 77 178 1.0 10.0 0.00 0.01 0.00 86 1015.6
20260510150118 78 192 6.0 10.0 0.00 0.01 0.00 85 1015.5
20260510144547 76 110 2.0 7.0 0.00 0.01 0.00 88 1015.9
20260510143046 76 74 0.0 4.0 0.00 0.01 0.00 88 1016.0
20260510141545 76 113 2.0 10.0 0.00 0.01 0.00 88 1015.9
20260510140045 74 107 4.0 9.0 0.00 0.01 0.00 90 1015.8
20260510134548 73 117 4.0 8.0 0.00 0.01 0.00 91 1016.0
20260510133047 73 0 4.0 8.0 0.00 0.01 0.00 92 1015.8
20260510131546 72 76 0.0 6.0 0.00 0.01 0.00 92 1016.1
20260510130045 72 0 2.0 7.0 0.00 0.01 0.00 93 1015.8
20260510124555 72 84 1.0 8.0 0.00 0.01 0.00 93 1015.6
20260510123048 71 86 2.0 8.0 0.00 0.01 0.00 93 1015.4
20260510121548 71 0 1.0 5.0 0.00 0.01 0.00 93 1015.1
20260510120054 71 0 1.0 6.0 0.00 0.01 0.00 93 1014.5
20260510114553 71 88 3.0 7.0 0.00 0.01 0.00 93 1014.0
20260510113044 72 96 1.0 7.0 0.00 0.01 0.00 93 1013.8
20260510111553 72 92 1.0 4.0 0.00 0.01 0.00 93 1013.7
20260510110052 72 96 1.0 6.0 0.00 0.01 0.00 93 1013.3
20260510104552 72 0 0.0 4.0 0.00 0.01 0.00 92 1013.2
20260510103059 73 109 1.0 10.0 0.00 0.01 0.00 93 1012.8
20260510101547 73 174 8.0 13.0 0.00 0.01 0.00 93 1012.2
20260510100048 73 163 9.0 14.0 0.00 0.01 0.00 93 1011.9
20260510094559 73 173 10.0 14.0 0.00 0.01 0.00 93 1011.7
20260510093111 73 163 10.0 14.0 0.00 0.01 0.00 93 1011.8
20260510091547 73 170 8.0 12.0 0.00 0.01 0.00 93 1011.8
20260510090056 73 155 7.0 11.0 0.00 0.01 0.00 93 1011.6
20260510084545 73 161 6.0 10.0 0.00 0.01 0.00 93 1011.7
20260510083055 73 170 8.0 11.0 0.00 0.01 0.00 93 1011.7
20260510081549 73 178 8.0 12.0 0.00 0.01 0.00 93 1011.6
20260510080056 73 171 10.0 15.0 0.00 0.01 0.00 93 1011.6
20260510074549 73 171 10.0 14.0 0.00 0.01 0.00 93 1011.8
20260510073056 73 174 9.0 12.0 0.00 0.01 0.00 93 1011.9
20260510071552 72 155 8.0 12.0 0.00 0.01 0.00 93 1012.0
20260510070051 72 169 8.0 11.0 0.00 0.01 0.00 93 1011.9
20260510064558 72 164 8.0 11.0 0.00 0.01 0.00 93 1011.8
20260510063052 72 151 8.0 12.0 0.00 0.01 0.00 92 1011.7
20260510061547 72 172 9.0 13.0 0.00 0.01 0.00 92 1011.9
20260510060047 72 198 12.0 15.0 0.00 0.01 0.00 92 1011.7
20260510054545 73 178 10.0 12.0 0.00 0.01 0.00 92 1011.9
20260510053050 73 178 9.0 11.0 0.00 0.01 0.00 92 1011.9
20260510051557 72 177 9.0 12.0 0.00 0.01 0.00 91 1012.1
20260510050048 72 172 9.0 14.0 0.00 0.01 0.00 90 1012.1
20260510044555 72 173 11.0 15.0 0.00 0.01 0.01 89 1012.3
20260510043053 73 165 11.0 15.0 0.00 0.01 0.01 88 1012.5
20260510041555 73 160 8.0 11.0 0.00 0.01 0.01 87 1012.7
20260510040053 73 161 10.0 16.0 0.00 0.01 0.01 86 1012.4
20260510034549 73 194 13.0 17.0 0.00 0.01 0.01 86 1012.4
20260510033050 74 192 12.0 16.0 0.01 0.01 0.01 85 1012.4
20260510031546 74 178 13.0 17.0 0.01 0.01 0.01 84 1012.3
20260510030056 75 167 15.0 21.0 0.01 0.01 0.01 83 1012.3
20260510024544 75 179 18.0 25.0 0.01 0.01 0.01 84 1012.1
20260510023052 75 158 11.0 18.0 0.00 0.00 0.00 84 1012.0
20260510021547 76 165 13.0 19.0 0.00 0.00 0.00 83 1011.4
20260510020047 76 136 16.0 22.0 0.00 0.00 0.00 83 1011.2
20260510014548 77 167 16.0 21.0 0.00 0.00 0.00 83 1010.8
20260510013046 79 165 7.0 18.0 0.00 0.00 0.00 80 1010.5
20260510011554 82 134 5.0 9.0 0.00 0.00 0.00 80 1010.2
20260510010052 83 155 4.0 5.0 0.00 0.00 0.00 83 1009.9
20260510004552 83 148 3.0 5.0 0.00 0.00 0.00 81 1009.4
20260510003048 83 184 2.0 4.0 0.00 0.00 0.00 78 1009.3
20260510001551 83 203 4.0 6.0 0.00 0.00 0.00 80 1009.0
20260510000051 83 201 4.0 6.0 0.00 0.00 0.00 81 1008.9
20260509234544 83 199 5.0 7.0 0.00 0.00 0.00 80 1008.9
20260509233054 84 205 6.0 7.0 0.00 0.00 0.00 78 1008.9
20260509231548 84 205 4.0 6.0 0.00 0.00 0.00 77 1009.0
20260509230050 85 217 5.0 6.0 0.00 0.00 0.00 76 1008.8
20260509224552 85 218 4.0 5.0 0.00 0.00 0.00 75 1008.8
20260509223053 85 232 3.0 6.0 0.00 0.00 0.00 75 1008.7
20260509221545 85 219 5.0 6.0 0.00 0.00 0.00 75 1008.7
20260509220058 86 215 5.0 6.0 0.00 0.00 0.00 73 1008.5
20260509214551 85 250 2.0 3.0 0.00 0.00 0.00 73 1008.5
20260509213104 85 235 4.0 6.0 0.00 0.00 0.00 73 1008.7
20260509211549 84 267 2.0 4.0 0.00 0.00 0.00 75 1008.8
20260509204552 83 285 2.0 5.0 0.00 0.00 0.00 77 1009.0